Weather History for Land O' Lakes, WI

Change the Weather History Date:

Monday, March 11, 2013

  Actual Average (KEGV) Record (KEGV)
Temperature  
Mean Temperature 24 °F -  
Max Temperature 28 °F 34 °F 59 °F (2012)
Min Temperature 19 °F 9 °F -4 °F (1998)
Degree Days  
Heating Degree Days 42    
Moisture  
Dew Point 23 °F    
Average Humidity 88    
Maximum Humidity 93    
Minimum Humidity 80    
Precipitation  
Precipitation 0.00 in - - ()
Sea Level Pressure  
Sea Level Pressure 29.64 in    
Wind  
Wind Speed 11 mph (North)    
Max Wind Speed 17 mph    
Max Gust Speed 25 mph    
Visibility 3 miles    
Events Snow    
Averages and records for this station are not official NWS values.
T = Trace of Precipitation, MM = Missing Value Source: NWS Daily Summary

Daily Weather History Graph

Daily Weather History Graph

Search for Another Location

Airport:

Trip Planner

Search our weather history database for the weather conditions in past years. The results will help you decide how hot, cold, wet, or windy it might be!

Date:

Astronomy

Mar. 11, 2013 Rise Set
Actual Time 7:16 AM CDT 6:57 PM CDT
Civil Twilight 6:46 AM CDT 7:27 PM CDT
Nautical Twilight 6:12 AM CDT 8:02 PM CDT
Astronomical Twilight 5:36 AM CDT 8:37 PM CDT
Moon 6:49 AM CDT (3/11) 7:13 PM CDT (3/11)
Length of Visible Light 12h 40m
Length of Day
11h 40m
Waning Crescent, 0% of the Moon is Illuminated
Mar 11
Waning Crescent
Mar 11
New
Mar 19
First Quarter
Mar 27
Full
Apr 2
Last Quarter

Hourly Weather History & Observations

Time (CDT) Temp. Windchill Dew Point Humidity Pressure Visibility Wind Dir Wind Speed Gust Speed Precip Events Conditions
12:15 AM 28.4 °F 19.7 °F 26.6 °F 93% 29.79 in 0.8 mi NNE 9.2 mph - N/A Snow Snow
12:35 AM 28.4 °F 18.5 °F 26.6 °F 93% 29.78 in 0.8 mi NNE 11.5 mph 19.6 mph N/A Snow Snow
12:55 AM 28.4 °F 18.5 °F 26.6 °F 93% 29.76 in 1.0 mi NNE 11.5 mph 21.9 mph N/A Snow Snow
1:15 AM 28.4 °F 18.5 °F 26.6 °F 93% 29.75 in 1.2 mi NNE 11.5 mph - N/A Snow Light Snow
1:35 AM 28.4 °F 18.0 °F 26.6 °F 93% 29.74 in 1.0 mi NNE 12.7 mph 21.9 mph N/A Snow Snow
2:15 AM 28.4 °F 18.0 °F 26.6 °F 93% 29.73 in 0.8 mi NNE 12.7 mph - N/A Snow Snow
2:35 AM 28.4 °F 19.7 °F 26.6 °F 93% 29.72 in 0.8 mi NNE 9.2 mph 17.3 mph N/A Snow Snow
2:55 AM 28.4 °F 18.0 °F 26.6 °F 93% 29.71 in 1.0 mi NNE 12.7 mph - N/A Snow Snow
3:15 AM 28.4 °F 19.1 °F 26.6 °F 93% 29.70 in 0.8 mi NNE 10.4 mph 17.3 mph N/A Snow Snow
3:35 AM 28.4 °F 18.5 °F 26.6 °F 93% 29.69 in 1.2 mi North 11.5 mph 17.3 mph N/A Snow Light Snow
3:55 AM 28.4 °F 17.5 °F 26.6 °F 93% 29.67 in 1.8 mi NNE 13.8 mph 18.4 mph N/A Snow Light Snow
4:15 AM 28.4 °F 17.0 °F 26.6 °F 93% 29.65 in 2.5 mi NNE 15.0 mph 20.7 mph N/A Snow Light Snow
4:35 AM 28.4 °F 18.0 °F 26.6 °F 93% 29.65 in 4.0 mi North 12.7 mph 20.7 mph N/A Snow Light Snow
4:55 AM 28.4 °F 17.0 °F 26.6 °F 93% 29.65 in 5.0 mi North 15.0 mph 25.3 mph N/A Snow Light Snow
5:15 AM 28.4 °F 18.5 °F 26.6 °F 93% 29.65 in 5.0 mi North 11.5 mph 25.3 mph N/A Snow Light Snow
5:35 AM 28.4 °F 18.0 °F 26.6 °F 93% 29.65 in 5.0 mi North 12.7 mph 19.6 mph N/A Snow Light Snow
5:55 AM 28.4 °F 18.0 °F 26.6 °F 93% 29.65 in 5.0 mi NNE 12.7 mph 25.3 mph N/A Snow Light Snow
6:15 AM 28.4 °F 18.0 °F 26.6 °F 93% 29.65 in 3.0 mi NNE 12.7 mph 24.2 mph N/A Snow Light Snow
6:35 AM 28.4 °F 16.2 °F 26.6 °F 93% 29.65 in 1.8 mi NNE 17.3 mph 21.9 mph N/A Snow Light Snow
6:55 AM 28.4 °F 18.5 °F 26.6 °F 93% 29.65 in 2.5 mi North 11.5 mph 18.4 mph N/A Snow Light Snow
7:15 AM 28.4 °F 18.5 °F 24.8 °F 86% 29.65 in 3.0 mi NNE 11.5 mph 20.7 mph N/A Snow Light Snow
7:35 AM 28.4 °F 18.0 °F 24.8 °F 86% 29.65 in 5.0 mi NNE 12.7 mph 23.0 mph N/A Snow Light Snow
7:55 AM 28.4 °F 17.5 °F 24.8 °F 86% 29.66 in 10.0 mi NNE 13.8 mph 19.6 mph N/A   Overcast
8:15 AM 26.6 °F 13.8 °F 24.8 °F 93% 29.65 in 10.0 mi NNE 17.3 mph 24.2 mph N/A Snow Light Snow
8:35 AM 26.6 °F 15.2 °F 23.0 °F 86% 29.65 in 7.0 mi NNE 13.8 mph 20.7 mph N/A Snow Light Snow
8:55 AM 26.6 °F 16.8 °F 23.0 °F 86% 29.65 in 5.0 mi NNE 10.4 mph 19.6 mph N/A Snow Light Snow
9:15 AM 26.6 °F 15.2 °F 23.0 °F 86% 29.65 in 7.0 mi North 13.8 mph 24.2 mph N/A Snow Light Snow
9:35 AM 26.6 °F 16.2 °F 23.0 °F 86% 29.65 in 4.0 mi NNE 11.5 mph 17.3 mph N/A Snow Light Snow
9:55 AM 26.6 °F 15.7 °F 23.0 °F 86% 29.65 in 2.5 mi NNE 12.7 mph 19.6 mph N/A Snow Light Snow
10:15 AM 26.6 °F 16.2 °F 23.0 °F 86% 29.65 in 1.2 mi NNE 11.5 mph 19.6 mph N/A Snow Light Snow
10:35 AM 26.6 °F 18.2 °F 23.0 °F 86% 29.64 in 1.2 mi North 8.1 mph - N/A Snow Light Snow
10:55 AM 26.6 °F 16.8 °F 23.0 °F 86% 29.63 in 1.2 mi North 10.4 mph - N/A Snow Light Snow
11:15 AM 26.6 °F 16.8 °F 23.0 °F 86% 29.62 in 1.0 mi North 10.4 mph - N/A Snow Light Snow
11:35 AM 26.6 °F 16.8 °F 23.0 °F 86% 29.62 in 1.5 mi North 10.4 mph 16.1 mph N/A Snow Light Snow
11:55 AM 26.6 °F 15.7 °F 23.0 °F 86% 29.61 in 1.8 mi North 12.7 mph - N/A Snow Light Snow
12:15 PM 26.6 °F 17.5 °F 23.0 °F 86% 29.60 in 2.0 mi North 9.2 mph - N/A Snow Light Snow
12:35 PM 26.6 °F 15.2 °F 21.2 °F 80% 29.60 in 1.8 mi NNE 13.8 mph 18.4 mph N/A Snow Light Snow
12:55 PM 26.6 °F 15.7 °F 23.0 °F 86% 29.59 in 2.5 mi North 12.7 mph 17.3 mph N/A Snow Light Snow
1:15 PM 26.6 °F 15.7 °F 21.2 °F 80% 29.59 in 3.0 mi North 12.7 mph 17.3 mph N/A Snow Light Snow
1:35 PM 26.6 °F 16.2 °F 23.0 °F 86% 29.59 in 2.5 mi North 11.5 mph - N/A Snow Light Snow
1:55 PM 26.6 °F 16.8 °F 23.0 °F 86% 29.59 in 1.8 mi North 10.4 mph - N/A Snow Light Snow
2:15 PM 26.6 °F 17.5 °F 23.0 °F 86% 29.59 in 1.5 mi North 9.2 mph - N/A Snow Light Snow
2:35 PM 26.6 °F 16.8 °F 23.0 °F 86% 29.58 in 1.5 mi North 10.4 mph - N/A Snow Light Snow
2:55 PM 28.4 °F 19.1 °F 23.0 °F 80% 29.58 in 1.8 mi North 10.4 mph 20.7 mph N/A Snow Light Snow
3:15 PM 26.6 °F 16.8 °F 23.0 °F 86% 29.58 in 1.5 mi North 10.4 mph - N/A Snow Light Snow
3:35 PM 26.6 °F 14.7 °F 23.0 °F 86% 29.58 in 1.2 mi North 15.0 mph 19.6 mph N/A Snow Light Snow
3:55 PM 26.6 °F 16.2 °F 21.2 °F 80% 29.59 in 2.0 mi North 11.5 mph 17.3 mph N/A Snow Light Snow
4:15 PM 26.6 °F 16.2 °F 21.2 °F 80% 29.59 in 3.0 mi North 11.5 mph 24.2 mph N/A Snow Light Snow
4:35 PM 26.6 °F 16.2 °F 21.2 °F 80% 29.58 in 3.0 mi North 11.5 mph 17.3 mph N/A Snow Light Snow
4:55 PM 24.8 °F 14.0 °F 21.2 °F 86% 29.58 in 2.5 mi NNW 11.5 mph 16.1 mph N/A Snow Light Snow
5:15 PM 24.8 °F 14.6 °F 21.2 °F 86% 29.58 in 2.5 mi NNW 10.4 mph 18.4 mph N/A Snow Light Snow
5:35 PM 23.0 °F 12.4 °F 21.2 °F 93% 29.58 in 4.0 mi North 10.4 mph 20.7 mph N/A Snow Light Snow
5:55 PM 23.0 °F 11.1 °F 19.4 °F 86% 29.58 in 3.0 mi NNW 12.7 mph 18.4 mph N/A Snow Light Snow
6:15 PM 23.0 °F 11.7 °F 19.4 °F 86% 29.59 in 2.5 mi North 11.5 mph 17.3 mph N/A Snow Light Snow
6:35 PM 23.0 °F 11.7 °F 19.4 °F 86% 29.59 in 2.5 mi NNW 11.5 mph - N/A Snow Light Snow
6:55 PM 23.0 °F 11.7 °F 19.4 °F 86% 29.59 in 2.0 mi North 11.5 mph - N/A Snow Light Snow
7:15 PM 23.0 °F 13.1 °F 19.4 °F 86% 29.59 in 4.0 mi NNW 9.2 mph 16.1 mph N/A Snow Light Snow
7:35 PM 21.2 °F 8.9 °F 19.4 °F 93% 29.60 in 3.0 mi NNW 12.7 mph 18.4 mph N/A Snow Light Snow
7:55 PM 21.2 °F 9.5 °F 17.6 °F 86% 29.60 in 3.0 mi NNW 11.5 mph - N/A Snow Light Snow
8:15 PM 21.2 °F 9.5 °F 17.6 °F 86% 29.62 in 10.0 mi NNW 11.5 mph - N/A   Overcast
8:35 PM 21.2 °F 10.1 °F 17.6 °F 86% 29.63 in 10.0 mi North 10.4 mph - N/A   Overcast
8:55 PM 21.2 °F 10.1 °F 17.6 °F 86% 29.64 in 10.0 mi North 10.4 mph - N/A Snow Light Snow
9:15 PM 21.2 °F 10.9 °F 17.6 °F 86% 29.64 in 5.0 mi NNW 9.2 mph - N/A Snow Light Snow
9:35 PM 21.2 °F 11.7 °F 17.6 °F 86% 29.65 in 2.0 mi NNW 8.1 mph - N/A Snow Light Snow
9:55 PM 21.2 °F 13.6 °F 17.6 °F 86% 29.65 in 1.2 mi NW 5.8 mph - N/A Snow Snow
10:15 PM 21.2 °F 12.6 °F 17.6 °F 86% 29.65 in 1.2 mi WNW 6.9 mph - N/A Snow Light Snow
10:35 PM 19.4 °F 11.5 °F 17.6 °F 93% 29.65 in 1.5 mi WNW 5.8 mph - N/A Snow Light Snow
10:55 PM 19.4 °F 9.5 °F 17.6 °F 93% 29.64 in 2.0 mi WNW 8.1 mph - N/A Snow Light Snow
11:15 PM 19.4 °F 11.5 °F 17.6 °F 93% 29.64 in 2.5 mi WNW 5.8 mph - N/A Snow Light Snow
11:35 PM 19.4 °F 9.5 °F 17.6 °F 93% 29.64 in 2.5 mi NW 8.1 mph - N/A Snow Light Snow
11:55 PM 19.4 °F 11.5 °F 17.6 °F 93% 29.64 in 7.0 mi WNW 5.8 mph - N/A Snow Light Snow